Location: Unspecified
(43.3830°N, 0.0000°E)
Time: 16:30:24
(UTC+00:00)

N. Korean satellite - Visible Passes

Search period start: 25 November 2020 00:00
Search period end: 05 December 2020 00:00
Orbit: 452 x 504 km, 97.2° (Epoch: 24 November)

Date Brightness Start Highest point End Pass type
(mag) Time Alt. Az. Time Alt. Az. Time Alt. Az.
25 Nov 7.6 05:14:06 10° NNE 05:17:34 46° E 05:21:04 10° S visible
25 Nov 9.2 17:24:01 10° SSW 17:26:47 23° W 17:29:36 10° NW visible
26 Nov 9.1 04:48:20 10° NE 04:51:12 22° E 04:54:05 10° SSE visible
26 Nov 7.7 06:21:34 10° NNW 06:24:28 23° WNW 06:27:24 10° SW visible
26 Nov 7.5 16:57:06 10° S 17:00:24 51° W 17:03:46 10° NNW visible
27 Nov 10.1 04:23:42 10° ENE 04:24:44 11° E 04:25:46 10° ESE visible
27 Nov 6.7 05:54:51 10° N 05:58:20 48° WNW 06:01:50 10° SSW visible
28 Nov 6.7 05:28:29 10° NNE 05:32:05 75° ESE 05:35:43 10° S visible
28 Nov 9.7 17:39:14 10° SW 17:41:21 16° W 17:43:30 10° NW visible
29 Nov 8.4 05:02:27 10° NNE 05:05:45 33° E 05:09:05 10° SSE visible
29 Nov 8.1 06:36:30 10° NNW 06:38:50 17° WNW 06:41:12 10° WSW visible
29 Nov 8.5 17:11:48 10° SSW 17:14:54 32° W 17:18:03 10° NNW visible
30 Nov 9.6 04:36:56 10° NE 04:39:19 17° E 04:41:43 10° SE visible
30 Nov 7.3 06:09:28 10° N 06:12:44 32° WNW 06:16:00 10° SW visible
01 Dec 6.5 05:42:54 10° N 05:46:31 70° WNW 05:50:09 10° SSW visible
01 Dec 10.2 17:55:20 10° W 17:55:54 10° W 17:56:27 10° W visible
02 Dec 7.4 05:16:39 10° NNE 05:20:13 52° E 05:23:48 10° S visible
02 Dec 9.3 17:26:39 10° SSW 17:29:22 22° W 17:32:06 10° NW visible
03 Dec 9.0 04:50:46 10° NE 04:53:48 24° E 04:56:51 10° SSE visible
03 Dec 7.8 06:24:09 10° NNW 06:27:02 22° WNW 06:29:55 10° WSW visible
03 Dec 7.7 16:59:36 10° S 17:02:55 47° W 17:06:18 10° NNW visible
04 Dec 10.0 04:25:45 10° ENE 04:27:18 12° E 04:28:51 10° ESE visible
04 Dec 6.8 05:57:21 10° N 06:00:51 45° WNW 06:04:22 10° SSW visible
